Location: Paris
(48.6709°N, 2.3750°E)
Time: 12:13:49
(UTC+02:00)

QB50P2 - Pass Details

Date: 01 July 2022
Orbit: 590 x 605 km, 97.9° (Epoch: 14 August)

Event Time Altitude Azimuth Distance (km) Brightness Sun altitude
Rises 02:04:57 0° 30° (NNE) 2,861 ? -18.2°
Reaches altitude 10° 02:07:59 10° 54° (NE) 1,955 ? -18.1°
Maximum altitude 02:10:29 15° 90° (E) 1,640 ? -18.1°
Enters shadow 02:12:25 12° 119° (ESE) 1,836 ? -18.1°
